Flag for Philippines Weather past 2 weeks in Tarlac City, Philippines

Now
77 °F

Partly cloudy.


Feels Like: 78 °F
Forecast: 76 / 90 °F
Wind: 2 mph from North

Location: Clarkfield Pampanga International Airport

Current Time: Aug 28, 2015 at 10:55:38 PM

Latest Report: Aug 28, 2015 at 10:00 PM


Visibility: N/A

Pressure: 29.92 "Hg

Humidity: 100%

Dew point: 77 °F

Location of Tarlac CityLocation

Historic Weather in Tarlac City — Graph

°F

Tarlac City temperature yesterday

Maximum temperature yesterday: 88 °F (at 12:00 PM)
Minimum temperature yesterday: 75 °F (at 12:00 AM)
Average temperature yesterday: 80 °F

Past Weeks' High & Low Weather Summary

 TemperatureHumidityPressure
High93 °F (Aug 16, 3:00 PM)100% (Aug 13, 9:00 PM)29.95 "Hg (Aug 13, 9:00 PM)
Low73 °F (Aug 28, 4:00 AM)55% (Aug 14, 4:00 PM)29.53 "Hg (Aug 21, 4:00 PM)
Average80 °F88%29.80 "Hg
* Reported Aug 13 9:00 PM — Aug 28 9:00 PM, Tarlac City, Weather by CustomWeather, © 2015

Note: Actual official high and low records may vary slightly from our data, if they occured in-between our weather recording intervals... More about our weather records

Advertising

Tarlac City weather history for previous 24 hours

 ConditionsComfort  
Time TempWeatherWind HumidityBarometerVisibility
9:00 PM
Fri, Aug 28
77 °FOvercast.10 mph94%29.89 "Hg5 mi
8:03 PM77 °FSprinkles. Overcast.9 mph94%29.86 "Hg4 mi
8:00 PM79 °FPassing clouds.7 mph94%29.86 "Hg6 mi
7:00 PM84 °FPassing clouds.2 mph79%29.83 "Hg6 mi
6:00 PM86 °FPartly sunny.5 mph62%29.80 "HgN/A
5:00 PM88 °FPartly sunny.7 mph62%29.80 "HgN/A
4:00 PM90 °FPartly sunny.1 mph63%29.77 "HgN/A
3:00 PM90 °FBroken clouds.1 mph63%29.80 "Hg6 mi
2:00 PM90 °FBroken clouds.1 mph59%29.80 "Hg6 mi
1:00 PM88 °FBroken clouds.3 mph66%29.83 "Hg5 mi
12:00 PM86 °FBroken clouds.5 mph70%29.86 "Hg6 mi
11:00 AM88 °FBroken clouds.2 mph66%29.86 "Hg6 mi
10:00 AM84 °FBroken clouds.6 mph74%29.89 "Hg6 mi
9:00 AM86 °FPartly sunny.2 mph66%29.89 "Hg6 mi
8:00 AM81 °FPartly sunny.3 mph84%29.89 "Hg6 mi
7:00 AM79 °FBroken clouds.1 mph89%29.86 "HgN/A
6:00 AM75 °FBroken clouds.6 mph100%29.86 "HgN/A
5:00 AM73 °FPartly cloudy.6 mph100%29.83 "HgN/A
4:00 AM73 °FPassing clouds.2 mph100%29.86 "HgN/A
3:00 AM77 °FPassing clouds.2 mph94%29.86 "HgN/A
2:00 AM75 °FPassing clouds.5 mph100%29.86 "HgN/A
1:00 AM75 °FPassing clouds.3 mph100%29.89 "HgN/A
12:00 AM77 °FPassing clouds.2 mph100%29.92 "HgN/A
11:00 PM
Thu, Aug 27
75 °FMostly cloudy.2 mph100%29.95 "HgN/A
10:00 PM75 °FMostly cloudy.1 mph100%29.92 "Hg6 mi
Weather by CustomWeather, © 2015

See weather overviewHow to use our weather pages